Date String (YYYY-MM-DD hh:mm:ss) UTC,Instrument flags,Ambient pressure (hPa),Sample flow (lpm),Bypass flow (lpm),Sample temperature (°C),Ambient temperature (°C),ASC tube jacket temperature (°C),LED temperature (°C),Box temperature (°C),Sample RH (%),Span deviation,Mass concentration (μg/m³),Mass concentration (μg/m³),Mass concentration (μg/m³)
DateTimeUTC,F1_M11,P_M11,Q1_M11,Q2_M11,T1_M11,T2_M11,T3_M11,T4_M11,T5_M11,U1_M11,ZSPAN_M11,X0_M11,X2_M11,X1_M11
2022-06-26 04:00:00,,0836.7,5.00,0.00,29.6,28.3,00.0,38.4,31.5,26.7,0000.0,0010.68,0004.69,0003.99
2022-06-26 04:01:00,,0836.7,5.00,0.00,29.6,28.4,00.0,38.4,31.5,26.7,0000.0,0010.26,0004.71,0004.00
2022-06-26 04:02:00,,0836.7,5.00,0.00,29.6,28.4,00.0,38.4,31.5,26.5,0000.0,0010.30,0004.72,0004.01
2022-06-26 04:03:00,,0836.7,4.99,0.00,29.6,28.5,00.0,38.4,31.5,26.6,0000.0,0010.37,0004.74,0004.01
2022-06-26 04:04:00,,0836.7,5.01,0.00,29.6,28.6,00.0,38.5,31.5,26.7,0000.0,0010.35,0004.72,0004.00
2022-06-26 04:05:00,,0836.8,5.00,0.00,29.7,28.6,00.0,38.5,31.6,26.8,0000.0,0010.19,0004.69,0004.00
2022-06-26 04:06:00,,0836.8,5.00,0.00,29.7,28.7,00.0,38.5,31.6,26.7,0000.0,0010.18,0004.70,0004.01
2022-06-26 04:07:00,,0836.8,5.00,0.00,29.7,28.7,00.0,38.5,31.6,26.5,0000.0,0009.50,0004.72,0004.02
2022-06-26 04:08:00,,0836.8,5.01,0.00,29.7,28.7,00.0,38.5,31.7,26.6,0000.0,0008.81,0004.67,0004.04
2022-06-26 04:09:00,,0836.8,5.00,0.00,29.7,28.8,00.0,38.5,31.7,26.6,0000.0,0008.93,0004.65,0004.04
2022-06-26 04:10:00,,0836.9,4.99,0.00,29.8,28.8,00.0,38.5,31.7,26.4,0000.0,0009.17,0004.68,0004.05
2022-06-26 04:11:00,,0836.8,5.00,0.00,29.8,28.9,00.0,38.5,31.7,26.4,0000.0,0009.07,0004.67,0004.04
2022-06-26 04:12:00,,0836.9,5.01,0.00,29.8,28.9,00.0,38.6,31.7,26.4,0000.0,0008.91,0004.68,0004.04
2022-06-26 04:13:00,,0836.8,5.00,0.00,29.8,28.9,00.0,38.6,31.8,26.3,0000.0,0009.09,0004.67,0004.03
2022-06-26 04:14:00,,0836.9,5.00,0.00,29.8,28.9,00.0,38.6,31.8,26.2,0000.0,0009.22,0004.70,0004.04
2022-06-26 04:15:00,,0836.9,4.99,0.00,29.9,29.0,00.0,38.6,31.8,26.0,0000.0,0009.33,0004.73,0004.05
2022-06-26 04:16:00,,0836.9,4.99,0.00,29.9,29.0,00.0,38.6,31.9,25.9,0000.0,0010.28,0004.77,0004.06
2022-06-26 04:17:00,,0836.9,5.00,0.00,29.9,29.0,00.0,38.7,31.9,25.7,0000.0,0010.56,0004.80,0004.06
2022-06-26 04:18:00,,0836.9,5.00,0.00,29.9,28.6,00.0,38.6,31.8,25.8,0000.0,0010.54,0004.84,0004.07
2022-06-26 04:19:00,,0837.0,4.99,0.00,29.8,27.9,00.0,38.6,31.6,25.9,0000.0,0010.51,0004.86,0004.07
2022-06-26 04:20:00,,0837.0,4.99,0.00,29.8,27.6,00.0,38.5,31.4,25.9,0000.0,0010.41,0004.89,0004.09
2022-06-26 04:21:00,,0837.0,5.00,0.00,29.7,27.5,00.0,38.5,31.4,25.9,0000.0,0010.08,0004.87,0004.09
2022-06-26 04:22:00,,0837.0,5.01,0.00,29.6,27.6,00.0,38.5,31.4,25.9,0000.0,0010.40,0004.90,0004.10
2022-06-26 04:23:00,,0837.0,5.01,0.00,29.6,27.7,00.0,38.5,31.3,25.9,0000.0,0010.64,0004.89,0004.10
2022-06-26 04:24:00,,0837.0,5.00,0.00,29.6,27.8,00.0,38.5,31.3,25.9,0000.0,0010.60,0004.86,0004.09
2022-06-26 04:25:00,,0837.0,5.00,0.00,29.6,27.9,00.0,38.5,31.4,25.9,0000.0,0010.61,0004.85,0004.08
2022-06-26 04:26:00,,0837.0,5.00,0.00,29.6,28.0,00.0,38.5,31.4,25.9,0000.0,0010.68,0004.85,0004.07
2022-06-26 04:27:00,,0837.0,5.01,0.00,29.6,28.1,00.0,38.5,31.4,26.0,0000.0,0009.78,0004.83,0004.06
2022-06-26 04:28:00,,0837.0,5.00,0.00,29.6,28.2,00.0,38.5,31.5,25.9,0000.0,0009.45,0004.79,0004.05
2022-06-26 04:29:00,,0837.0,5.00,0.00,29.6,28.3,00.0,38.5,31.5,25.9,0000.0,0009.55,0004.79,0004.04
2022-06-26 04:30:00,,0837.0,5.00,0.00,29.6,28.4,00.0,38.5,31.5,25.9,0000.0,0010.26,0004.81,0004.03
2022-06-26 04:31:00,,0837.0,5.00,0.00,29.6,28.5,00.0,38.5,31.5,25.8,0000.0,0010.62,0004.77,0004.02
2022-06-26 04:32:00,,0836.9,5.01,0.00,29.7,28.5,00.0,38.5,31.5,25.8,0000.0,0011.03,0004.78,0004.02
2022-06-26 04:33:00,,0836.9,5.00,0.00,29.7,28.6,00.0,38.5,31.6,25.8,0000.0,0011.11,0004.80,0004.01
2022-06-26 04:34:00,,0836.9,4.99,0.00,29.7,28.6,00.0,38.5,31.6,25.8,0000.0,0010.97,0004.79,0004.00
2022-06-26 04:35:00,,0836.9,5.00,0.00,29.7,28.7,00.0,38.5,31.6,25.7,0000.0,0010.75,0004.82,0004.01
2022-06-26 04:36:00,,0836.9,5.00,0.00,29.7,28.7,00.0,38.5,31.7,25.7,0000.0,0010.88,0004.84,0004.01
2022-06-26 04:37:00,,0836.9,5.00,0.00,29.7,28.8,00.0,38.5,31.7,25.7,0000.0,0010.87,0004.84,0004.02
2022-06-26 04:38:00,,0837.0,5.01,0.00,29.8,28.8,00.0,38.5,31.7,25.7,0000.0,0011.22,0004.85,0004.03
2022-06-26 04:39:00,,0836.9,5.00,0.00,29.8,28.9,00.0,38.6,31.7,25.7,0000.0,0011.37,0004.86,0004.04
2022-06-26 04:40:00,,0837.0,5.00,0.00,29.8,28.9,00.0,38.6,31.8,25.7,0000.0,0011.17,0004.84,0004.04
2022-06-26 04:41:00,,0837.0,5.00,0.00,29.8,28.9,00.0,38.6,31.7,25.6,0000.0,0010.64,0004.81,0004.05
2022-06-26 04:42:00,,0837.0,5.00,0.00,29.9,29.0,00.0,38.6,31.8,25.6,0000.0,0010.00,0004.80,0004.05
2022-06-26 04:43:00,,0837.0,4.99,0.00,29.9,29.0,00.0,38.6,31.8,25.8,0000.0,0009.86,0004.80,0004.04
2022-06-26 04:44:00,,0837.0,5.01,0.00,29.9,29.0,00.0,38.6,31.8,25.8,0000.0,0009.56,0004.74,0004.04
2022-06-26 04:45:00,,0837.0,5.00,0.00,29.9,29.0,00.0,38.6,31.9,25.8,0000.0,0009.28,0004.73,0004.04
2022-06-26 04:46:00,,0837.0,4.99,0.00,29.9,29.1,00.0,38.7,31.9,25.9,0000.0,0009.75,0004.71,0004.04
2022-06-26 04:47:00,,0837.1,5.00,0.00,30.0,29.1,00.0,38.7,31.9,26.0,0000.0,0009.70,0004.69,0004.04
2022-06-26 04:48:00,,0837.0,5.00,0.00,30.0,29.1,00.0,38.7,31.9,26.0,0000.0,0010.33,0004.69,0004.04
2022-06-26 04:49:00,,0837.0,5.01,0.00,30.0,28.6,00.0,38.7,31.8,25.9,0000.0,0009.96,0004.65,0004.04
2022-06-26 04:50:00,,0837.0,4.98,0.00,29.9,27.9,00.0,38.6,31.6,26.0,0000.0,0010.50,0004.64,0004.04
2022-06-26 04:51:00,,0837.0,5.00,0.00,29.8,27.6,00.0,38.6,31.5,26.1,0000.0,0010.66,0004.62,0004.04
2022-06-26 04:52:00,,0837.0,5.01,0.00,29.7,27.6,00.0,38.6,31.4,26.2,0000.0,0011.25,0004.62,0004.04
2022-06-26 04:53:00,,0837.0,5.00,0.00,29.7,27.7,00.0,38.6,31.4,26.2,0000.0,0011.56,0004.62,0004.04
2022-06-26 04:54:00,,0837.0,5.00,0.00,29.7,27.8,00.0,38.5,31.4,26.2,0000.0,0011.48,0004.61,0004.04
2022-06-26 04:55:00,,0837.0,5.01,0.00,29.7,27.9,00.0,38.5,31.4,26.2,0000.0,0012.37,0004.61,0004.04
2022-06-26 04:56:00,,0837.1,5.00,0.00,29.6,28.0,00.0,38.5,31.4,26.1,0000.0,0013.22,0004.67,0004.05
2022-06-26 04:57:00,,0837.1,5.01,0.00,29.6,28.1,00.0,38.5,31.5,26.0,0000.0,0013.42,0004.67,0004.05
2022-06-26 04:58:00,,0837.1,5.01,0.00,29.6,28.2,00.0,38.5,31.5,26.0,0000.0,0012.97,0004.70,0004.07
2022-06-26 04:59:00,,0837.1,5.01,0.00,29.7,28.3,00.0,38.5,31.5,26.0,0000.0,0012.74,0004.70,0004.08
